TimeCST,TemperatureF,Dew PointF,Humidity,Sea Level PressureIn,VisibilityMPH,Wind Direction,Wind SpeedMPH,Gust SpeedMPH,PrecipitationIn,Events,Conditions,WindDirDegrees,DateUTC
12:58 AM,37.9,36.0,93,30.31,-9999.0,NE,3.5,-,N/A,,Clear,50,2012-12-14 06:58:00
1:58 AM,36.0,34.0,93,30.32,-9999.0,Calm,Calm,-,N/A,,Scattered Clouds,0,2012-12-14 07:58:00
2:04 AM,37.4,35.6,93,30.32,-9999.0,Calm,Calm,-,N/A,,Mostly Cloudy,0,2012-12-14 08:04:00
2:58 AM,42.1,39.9,92,30.30,-9999.0,NNE,3.5,-,N/A,,Overcast,30,2012-12-14 08:58:00
3:08 AM,42.8,41.0,93,30.30,-9999.0,NE,3.5,-,N/A,,Overcast,50,2012-12-14 09:08:00
3:58 AM,43.0,42.1,97,30.30,-9999.0,East,9.2,-,N/A,,Overcast,80,2012-12-14 09:58:00
4:58 AM,44.1,43.0,96,30.31,-9999.0,ENE,8.1,-,N/A,,Overcast,70,2012-12-14 10:58:00
5:58 AM,44.1,43.0,96,30.32,-9999.0,ENE,8.1,-,N/A,,Overcast,60,2012-12-14 11:58:00
6:58 AM,44.1,43.0,96,30.32,-9999.0,NE,8.1,-,N/A,,Overcast,50,2012-12-14 12:58:00
7:58 AM,45.0,43.0,93,30.35,-9999.0,NE,8.1,-,N/A,,Overcast,50,2012-12-14 13:58:00
8:58 AM,45.0,44.1,97,30.35,-9999.0,East,8.1,-,N/A,,Overcast,90,2012-12-14 14:58:00
9:58 AM,46.9,44.1,90,30.35,-9999.0,East,5.8,-,N/A,,Overcast,100,2012-12-14 15:58:00
10:58 AM,48.0,45.0,89,30.32,-9999.0,ESE,6.9,-,N/A,,Overcast,110,2012-12-14 16:58:00
11:04 AM,48.2,44.6,87,30.32,-9999.0,East,8.1,-,N/A,,Overcast,100,2012-12-14 17:04:00
11:49 AM,51.8,44.6,76,30.29,-9999.0,Variable,5.8,-,N/A,,Overcast,0,2012-12-14 17:49:00
12:32 PM,53.6,44.6,72,30.27,10.0,Calm,Calm,-,N/A,,Scattered Clouds,0,2012-12-14 18:32:00
12:58 PM,57.0,46.0,67,30.26,10.0,SE,4.6,-,N/A,,Partly Cloudy,130,2012-12-14 18:58:00
1:58 PM,57.9,46.9,67,30.22,10.0,SE,3.5,-,N/A,,Clear,140,2012-12-14 19:58:00
2:58 PM,60.1,46.9,62,30.22,10.0,Calm,Calm,-,N/A,,Clear,0,2012-12-14 20:58:00
3:58 PM,57.9,48.0,70,30.22,10.0,Variable,3.5,-,N/A,,Clear,0,2012-12-14 21:58:00
4:58 PM,52.0,46.9,83,30.24,10.0,Calm,Calm,-,N/A,,Clear,0,2012-12-14 22:58:00
5:58 PM,48.0,45.0,89,30.22,10.0,Calm,Calm,-,N/A,,Clear,0,2012-12-14 23:58:00
6:58 PM,45.0,43.0,93,30.22,10.0,Calm,Calm,-,N/A,,Clear,0,2012-12-15 00:58:00
7:58 PM,46.0,44.1,93,30.22,9.0,SSW,3.5,-,N/A,,Clear,210,2012-12-15 01:58:00
8:58 PM,46.0,44.1,93,30.20,8.0,Calm,Calm,-,N/A,,Clear,0,2012-12-15 02:58:00
9:58 PM,45.0,43.0,93,30.19,6.0,ESE,3.5,-,N/A,,Clear,120,2012-12-15 03:58:00
10:58 PM,45.0,44.1,97,30.19,6.0,Calm,Calm,-,N/A,,Clear,0,2012-12-15 04:58:00
11:58 PM,45.0,43.0,93,30.19,5.0,Calm,Calm,-,N/A,,Clear,0,2012-12-15 05:58:00